| time (UTC) | temp F | wind direction | speed MPH | gust MPH | rain 1hr in | rain 24hr in | rain mn in | humidity % | barometer mb |
| 20260510154829 | 82 | 150 | 3.0 | 7.0 | 0.00 | 0.00 | 0.00 | 79 | 1015.1 |
| 20260510154333 | 82 | 78 | 3.0 | 7.0 | 0.00 | 0.00 | 0.00 | 78 | 1015.1 |
| 20260510153823 | 82 | 142 | 1.0 | 6.0 | 0.00 | 0.00 | 0.00 | 80 | 1015.1 |
| 20260510153331 | 82 | 42 | 2.0 | 7.0 | 0.00 | 0.00 | 0.00 | 79 | 1015.3 |
| 20260510152837 | 82 | 86 | 4.0 | 7.0 | 0.00 | 0.00 | 0.00 | 79 | 1015.3 |
| 20260510152341 | 81 | 88 | 2.0 | 4.0 | 0.00 | 0.00 | 0.00 | 80 | 1015.3 |
| 20260510151825 | 81 | 83 | 1.0 | 5.0 | 0.00 | 0.00 | 0.00 | 81 | 1015.4 |
| 20260510151327 | 81 | 79 | 2.0 | 6.0 | 0.00 | 0.00 | 0.00 | 83 | 1015.4 |
| 20260510150831 | 80 | 61 | 2.0 | 7.0 | 0.00 | 0.00 | 0.00 | 82 | 1015.4 |
| 20260510150335 | 80 | 87 | 1.0 | 7.0 | 0.00 | 0.00 | 0.00 | 83 | 1015.2 |
| 20260510145858 | 80 | 75 | 3.0 | 6.0 | 0.00 | 0.00 | 0.00 | 84 | 1015.2 |
| 20260510145341 | 80 | 309 | 1.0 | 9.0 | 0.00 | 0.00 | 0.00 | 83 | 1015.2 |
| 20260510144824 | 80 | 281 | 2.0 | 9.0 | 0.00 | 0.00 | 0.00 | 84 | 1015.0 |
| 20260510144330 | 80 | 28 | 4.0 | 9.0 | 0.00 | 0.00 | 0.00 | 84 | 1015.0 |
| 20260510143835 | 80 | 131 | 2.0 | 9.0 | 0.00 | 0.00 | 0.00 | 83 | 1015.0 |
| 20260510143358 | 80 | 134 | 3.0 | 7.0 | 0.00 | 0.00 | 0.00 | 85 | 1014.9 |
| 20260510142826 | 79 | 55 | 0.0 | 7.0 | 0.00 | 0.00 | 0.00 | 86 | 1014.9 |
| 20260510142328 | 79 | 99 | 2.0 | 7.0 | 0.00 | 0.00 | 0.00 | 86 | 1014.9 |
| 20260510141855 | 79 | 61 | 2.0 | 7.0 | 0.00 | 0.00 | 0.00 | 86 | 1015.0 |
| 20260510141340 | 79 | 151 | 1.0 | 7.0 | 0.00 | 0.00 | 0.00 | 87 | 1015.0 |
| 20260510140824 | 79 | 73 | 2.0 | 7.0 | 0.00 | 0.00 | 0.00 | 87 | 1015.0 |
| 20260510140332 | 78 | 63 | 3.0 | 6.0 | 0.00 | 0.00 | 0.00 | 88 | 1015.0 |
| 20260510135856 | 78 | 85 | 3.0 | 6.0 | 0.00 | 0.00 | 0.00 | 88 | 1015.0 |
| 20260510135338 | 78 | 40 | 3.0 | 7.0 | 0.00 | 0.00 | 0.00 | 89 | 1015.0 |
| 20260510134822 | 78 | 29 | 3.0 | 7.0 | 0.00 | 0.00 | 0.00 | 89 | 1014.8 |
| 20260510134350 | 78 | 104 | 4.0 | 6.0 | 0.00 | 0.00 | 0.00 | 89 | 1014.8 |
| 20260510133834 | 78 | 63 | 1.0 | 7.0 | 0.00 | 0.00 | 0.00 | 90 | 1014.8 |
| 20260510133337 | 77 | 125 | 1.0 | 7.0 | 0.00 | 0.00 | 0.00 | 90 | 1014.4 |
| 20260510132841 | 77 | 49 | 2.0 | 7.0 | 0.00 | 0.00 | 0.00 | 91 | 1014.4 |
| 20260510132327 | 77 | 52 | 2.0 | 5.0 | 0.00 | 0.00 | 0.00 | 92 | 1014.4 |
| 20260510131835 | 76 | 62 | 2.0 | 5.0 | 0.00 | 0.00 | 0.00 | 93 | 1014.3 |
| 20260510131340 | 76 | 87 | 3.0 | 6.0 | 0.00 | 0.00 | 0.00 | 93 | 1014.3 |
| 20260510130824 | 75 | 71 | 2.0 | 6.0 | 0.00 | 0.00 | 0.00 | 93 | 1014.3 |
| 20260510130348 | 75 | 59 | 2.0 | 6.0 | 0.00 | 0.00 | 0.00 | 93 | 1014.2 |
| 20260510125850 | 75 | 74 | 1.0 | 4.0 | 0.00 | 0.00 | 0.00 | 94 | 1014.2 |
| 20260510125336 | 75 | 81 | 2.0 | 4.0 | 0.00 | 0.00 | 0.00 | 94 | 1014.2 |
| 20260510124841 | 75 | 18 | 0.0 | 3.0 | 0.00 | 0.00 | 0.00 | 94 | 1013.8 |
| 20260510124345 | 75 | 86 | 0.0 | 3.0 | 0.00 | 0.00 | 0.00 | 94 | 1013.8 |
| 20260510123828 | 75 | 139 | 1.0 | 2.0 | 0.00 | 0.00 | 0.00 | 94 | 1013.8 |
| 20260510123352 | 75 | 139 | 0.0 | 2.0 | 0.00 | 0.00 | 0.00 | 94 | 1013.5 |
| 20260510122835 | 75 | 139 | 0.0 | 1.0 | 0.00 | 0.00 | 0.00 | 94 | 1013.5 |
| 20260510122338 | 75 | 139 | 0.0 | 1.0 | 0.00 | 0.00 | 0.00 | 94 | 1013.5 |
| 20260510121825 | 74 | 139 | 0.0 | 1.0 | 0.00 | 0.00 | 0.00 | 94 | 1013.3 |
| 20260510121333 | 74 | 139 | 0.0 | 1.0 | 0.00 | 0.00 | 0.00 | 94 | 1013.3 |
| 20260510120901 | 74 | 139 | 0.0 | 2.0 | 0.00 | 0.00 | 0.00 | 94 | 1013.3 |
| 20260510120328 | 74 | 139 | 0.0 | 2.0 | 0.00 | 0.00 | 0.00 | 94 | 1012.9 |
| 20260510115832 | 74 | 139 | 0.0 | 1.0 | 0.00 | 0.00 | 0.00 | 94 | 1012.9 |
| 20260510115336 | 74 | 139 | 0.0 | 1.0 | 0.00 | 0.00 | 0.00 | 94 | 1012.9 |
| 20260510114841 | 74 | 139 | 0.0 | 1.0 | 0.00 | 0.00 | 0.00 | 94 | 1012.3 |
| 20260510114344 | 74 | 139 | 0.0 | 1.0 | 0.00 | 0.00 | 0.00 | 94 | 1012.3 |
| 20260510113850 | 74 | 139 | 0.0 | 2.0 | 0.00 | 0.00 | 0.00 | 94 | 1012.3 |
| 20260510113334 | 74 | 139 | 0.0 | 2.0 | 0.00 | 0.00 | 0.00 | 94 | 1012.1 |
| 20260510112839 | 74 | 139 | 1.0 | 3.0 | 0.00 | 0.00 | 0.00 | 94 | 1012.1 |
| 20260510112323 | 74 | 139 | 0.0 | 3.0 | 0.00 | 0.00 | 0.00 | 94 | 1012.1 |
| 20260510111827 | 74 | 139 | 0.0 | 0.0 | 0.00 | 0.00 | 0.00 | 94 | 1011.7 |
| 20260510111332 | 74 | 139 | 0.0 | 2.0 | 0.00 | 0.00 | 0.00 | 94 | 1011.7 |
| 20260510110837 | 74 | 184 | 1.0 | 2.0 | 0.00 | 0.00 | 0.00 | 94 | 1011.7 |
| 20260510110401 | 74 | 184 | 1.0 | 2.0 | 0.00 | 0.00 | 0.00 | 94 | 1011.6 |
| 20260510105841 | 74 | 179 | 0.0 | 2.0 | 0.00 | 0.00 | 0.00 | 94 | 1011.6 |
| 20260510105330 | 74 | 179 | 1.0 | 3.0 | 0.00 | 0.00 | 0.00 | 94 | 1011.6 |
| 20260510104833 | 74 | 179 | 1.0 | 3.0 | 0.00 | 0.00 | 0.00 | 93 | 1011.6 |
| 20260510104337 | 74 | 184 | 1.0 | 4.0 | 0.00 | 0.00 | 0.00 | 94 | 1011.6 |
| 20260510103902 | 74 | 147 | 1.0 | 4.0 | 0.00 | 0.00 | 0.00 | 94 | 1011.6 |
| 20260510103326 | 74 | 169 | 2.0 | 4.0 | 0.00 | 0.00 | 0.00 | 93 | 1011.4 |
| 20260510102829 | 74 | 134 | 0.0 | 4.0 | 0.00 | 0.00 | 0.00 | 93 | 1011.4 |
| 20260510102353 | 74 | 162 | 1.0 | 5.0 | 0.00 | 0.00 | 0.00 | 93 | 1011.4 |
| 20260510101839 | 74 | 141 | 2.0 | 5.0 | 0.00 | 0.00 | 0.00 | 93 | 1011.3 |
| 20260510101323 | 74 | 156 | 1.0 | 4.0 | 0.00 | 0.00 | 0.00 | 94 | 1011.3 |
| 20260510100827 | 74 | 150 | 3.0 | 5.0 | 0.00 | 0.00 | 0.00 | 94 | 1011.3 |
| 20260510100335 | 74 | 156 | 3.0 | 5.0 | 0.00 | 0.00 | 0.00 | 94 | 1011.2 |
| 20260510095836 | 74 | 199 | 2.0 | 10.0 | 0.00 | 0.00 | 0.00 | 94 | 1011.2 |
| 20260510095321 | 74 | 164 | 3.0 | 10.0 | 0.00 | 0.00 | 0.00 | 94 | 1011.2 |
| 20260510094832 | 74 | 170 | 2.0 | 6.0 | 0.00 | 0.00 | 0.00 | 94 | 1011.2 |
| 20260510094358 | 74 | 185 | 3.0 | 7.0 | 0.00 | 0.00 | 0.00 | 94 | 1011.2 |
| 20260510093841 | 74 | 143 | 4.0 | 7.0 | 0.00 | 0.00 | 0.00 | 94 | 1011.2 |
| 20260510093326 | 74 | 137 | 4.0 | 10.0 | 0.00 | 0.00 | 0.00 | 94 | 1011.1 |
| 20260510092831 | 74 | 153 | 5.0 | 10.0 | 0.00 | 0.00 | 0.00 | 94 | 1011.1 |
| 20260510092333 | 74 | 202 | 3.0 | 6.0 | 0.00 | 0.00 | 0.00 | 94 | 1011.1 |
| 20260510091837 | 74 | 190 | 2.0 | 5.0 | 0.00 | 0.00 | 0.00 | 94 | 1011.2 |
| 20260510091324 | 74 | 175 | 3.0 | 5.0 | 0.00 | 0.00 | 0.00 | 94 | 1011.2 |
| 20260510090847 | 74 | 177 | 3.0 | 5.0 | 0.00 | 0.00 | 0.00 | 94 | 1011.2 |
| 20260510090330 | 74 | 147 | 1.0 | 3.0 | 0.00 | 0.00 | 0.00 | 93 | 1011.1 |
| 20260510085833 | 74 | 170 | 1.0 | 5.0 | 0.00 | 0.00 | 0.00 | 93 | 1011.1 |
| 20260510085338 | 74 | 179 | 3.0 | 5.0 | 0.00 | 0.00 | 0.00 | 93 | 1011.1 |
| 20260510084825 | 74 | 146 | 2.0 | 3.0 | 0.00 | 0.00 | 0.00 | 93 | 1011.2 |
| 20260510084351 | 74 | 191 | 1.0 | 3.0 | 0.00 | 0.00 | 0.00 | 93 | 1011.2 |
| 20260510083835 | 74 | 164 | 2.0 | 3.0 | 0.00 | 0.00 | 0.00 | 93 | 1011.2 |
| 20260510083323 | 74 | 176 | 1.0 | 3.0 | 0.00 | 0.00 | 0.00 | 93 | 1011.2 |
| 20260510082827 | 74 | 140 | 0.0 | 4.0 | 0.00 | 0.00 | 0.00 | 93 | 1011.2 |
| 20260510082332 | 74 | 196 | 1.0 | 5.0 | 0.00 | 0.00 | 0.00 | 93 | 1011.2 |
| 20260510081840 | 74 | 151 | 2.0 | 5.0 | 0.00 | 0.00 | 0.00 | 92 | 1011.1 |
| 20260510081344 | 75 | 185 | 3.0 | 5.0 | 0.00 | 0.00 | 0.00 | 92 | 1011.1 |
| 20260510080828 | 75 | 174 | 2.0 | 5.0 | 0.00 | 0.00 | 0.00 | 92 | 1011.1 |
| 20260510080332 | 75 | 186 | 2.0 | 5.0 | 0.00 | 0.00 | 0.00 | 92 | 1011.2 |
| 20260510075838 | 75 | 201 | 2.0 | 5.0 | 0.00 | 0.00 | 0.00 | 92 | 1011.2 |
| 20260510075322 | 75 | 154 | 2.0 | 5.0 | 0.00 | 0.00 | 0.00 | 92 | 1011.2 |
| 20260510074828 | 75 | 170 | 3.0 | 5.0 | 0.00 | 0.00 | 0.00 | 92 | 1011.2 |
| 20260510074333 | 75 | 196 | 2.0 | 5.0 | 0.00 | 0.00 | 0.00 | 92 | 1011.2 |
| 20260510073839 | 75 | 126 | 2.0 | 5.0 | 0.00 | 0.00 | 0.00 | 92 | 1011.2 |
| 20260510073325 | 75 | 182 | 2.0 | 5.0 | 0.00 | 0.00 | 0.00 | 92 | 1011.4 |
| 20260510072830 | 75 | 198 | 0.0 | 2.0 | 0.00 | 0.00 | 0.00 | 91 | 1011.4 |
| 20260510072333 | 75 | 198 | 1.0 | 2.0 | 0.00 | 0.00 | 0.00 | 91 | 1011.4 |
| 20260510071836 | 75 | 198 | 0.0 | 1.0 | 0.00 | 0.00 | 0.00 | 91 | 1011.4 |
| 20260510071319 | 75 | 198 | 0.0 | 3.0 | 0.00 | 0.00 | 0.00 | 90 | 1011.4 |
| 20260510070826 | 76 | 198 | 1.0 | 3.0 | 0.00 | 0.00 | 0.00 | 91 | 1011.4 |
| 20260510070329 | 76 | 136 | 1.0 | 3.0 | 0.00 | 0.00 | 0.00 | 90 | 1011.3 |
| 20260510065836 | 76 | 130 | 2.0 | 6.0 | 0.00 | 0.00 | 0.00 | 90 | 1011.3 |
| 20260510065319 | 76 | 139 | 3.0 | 6.0 | 0.00 | 0.00 | 0.00 | 90 | 1011.3 |
| 20260510064847 | 76 | 133 | 2.0 | 5.0 | 0.00 | 0.00 | 0.00 | 90 | 1011.3 |
| 20260510064350 | 76 | 172 | 3.0 | 6.0 | 0.00 | 0.00 | 0.00 | 89 | 1011.3 |
| 20260510063855 | 76 | 184 | 3.0 | 7.0 | 0.00 | 0.00 | 0.00 | 89 | 1011.3 |
| 20260510063338 | 76 | 168 | 1.0 | 7.0 | 0.00 | 0.00 | 0.00 | 89 | 1011.3 |
| 20260510062826 | 76 | 132 | 3.0 | 9.0 | 0.00 | 0.00 | 0.00 | 89 | 1011.3 |
| 20260510062333 | 76 | 137 | 6.0 | 9.0 | 0.00 | 0.00 | 0.00 | 89 | 1011.3 |
| 20260510061840 | 76 | 168 | 4.0 | 11.0 | 0.00 | 0.00 | 0.00 | 90 | 1011.5 |
| 20260510061324 | 76 | 127 | 3.0 | 11.0 | 0.00 | 0.00 | 0.00 | 90 | 1011.5 |
| 20260510060831 | 76 | 120 | 5.0 | 8.0 | 0.00 | 0.00 | 0.00 | 90 | 1011.5 |
| 20260510060336 | 76 | 210 | 3.0 | 9.0 | 0.00 | 0.00 | 0.00 | 90 | 1011.5 |
| 20260510055838 | 76 | 136 | 4.0 | 10.0 | 0.00 | 0.00 | 0.00 | 90 | 1011.5 |
| 20260510055322 | 76 | 126 | 5.0 | 10.0 | 0.00 | 0.00 | 0.00 | 90 | 1011.5 |
| 20260510054849 | 76 | 137 | 4.0 | 9.0 | 0.00 | 0.00 | 0.00 | 90 | 1011.7 |
| 20260510054331 | 76 | 119 | 6.0 | 10.0 | 0.00 | 0.00 | 0.00 | 90 | 1011.7 |
| 20260510053859 | 76 | 139 | 3.0 | 10.0 | 0.00 | 0.00 | 0.00 | 89 | 1011.7 |
| 20260510053403 | 76 | 129 | 4.0 | 8.0 | 0.00 | 0.00 | 0.00 | 89 | 1011.7 |
| 20260510052825 | 76 | 136 | 4.0 | 9.0 | 0.00 | 0.00 | 0.00 | 88 | 1011.7 |
| 20260510052331 | 76 | 130 | 4.0 | 9.0 | 0.00 | 0.00 | 0.00 | 88 | 1011.7 |
| 20260510051841 | 76 | 137 | 5.0 | 9.0 | 0.00 | 0.00 | 0.00 | 88 | 1011.7 |
| 20260510051327 | 76 | 130 | 4.0 | 9.0 | 0.00 | 0.00 | 0.00 | 88 | 1011.7 |
| 20260510050833 | 76 | 130 | 4.0 | 7.0 | 0.00 | 0.00 | 0.00 | 88 | 1011.7 |
| 20260510050335 | 76 | 137 | 1.0 | 6.0 | 0.00 | 0.00 | 0.00 | 88 | 1011.7 |
| 20260510045837 | 76 | 73 | 2.0 | 9.0 | 0.00 | 0.00 | 0.00 | 88 | 1011.7 |
| 20260510045324 | 76 | 134 | 3.0 | 9.0 | 0.00 | 0.00 | 0.00 | 88 | 1011.7 |
| 20260510044848 | 77 | 123 | 5.0 | 10.0 | 0.00 | 0.00 | 0.00 | 88 | 1011.8 |
| 20260510044334 | 77 | 133 | 6.0 | 12.0 | 0.00 | 0.00 | 0.00 | 88 | 1011.8 |
| 20260510043838 | 77 | 125 | 6.0 | 10.0 | 0.00 | 0.00 | 0.00 | 88 | 1011.8 |
| 20260510043341 | 77 | 148 | 3.0 | 10.0 | 0.00 | 0.00 | 0.00 | 87 | 1011.8 |
| 20260510042825 | 77 | 130 | 3.0 | 10.0 | 0.00 | 0.00 | 0.00 | 87 | 1011.8 |
| 20260510042329 | 77 | 129 | 5.0 | 11.0 | 0.00 | 0.00 | 0.00 | 87 | 1011.8 |
| 20260510041837 | 77 | 125 | 8.0 | 12.0 | 0.00 | 0.00 | 0.00 | 87 | 1011.8 |
| 20260510041321 | 77 | 132 | 4.0 | 12.0 | 0.00 | 0.00 | 0.00 | 87 | 1011.8 |
| 20260510040829 | 77 | 127 | 6.0 | 12.0 | 0.00 | 0.00 | 0.00 | 88 | 1011.8 |
| 20260510040333 | 77 | 132 | 8.0 | 12.0 | 0.00 | 0.00 | 0.00 | 87 | 1011.8 |
| 20260510035857 | 77 | 127 | 4.0 | 6.0 | 0.00 | 0.00 | 0.00 | 87 | 1011.8 |
| 20260510035341 | 77 | 135 | 4.0 | 9.0 | 0.00 | 0.00 | 0.00 | 87 | 1011.8 |
| 20260510034825 | 77 | 128 | 5.0 | 10.0 | 0.00 | 0.00 | 0.00 | 87 | 1012.1 |
| 20260510034329 | 77 | 121 | 3.0 | 15.0 | 0.00 | 0.00 | 0.00 | 87 | 1012.1 |
| 20260510033834 | 77 | 119 | 9.0 | 15.0 | 0.00 | 0.00 | 0.00 | 87 | 1012.1 |
| 20260510033338 | 78 | 93 | 2.0 | 11.0 | 0.00 | 0.00 | 0.00 | 88 | 1011.9 |
| 20260510032822 | 78 | 120 | 1.0 | 7.0 | 0.00 | 0.00 | 0.00 | 88 | 1011.9 |
| 20260510032330 | 78 | 111 | 3.0 | 11.0 | 0.00 | 0.00 | 0.00 | 88 | 1011.9 |
| 20260510031854 | 78 | 127 | 5.0 | 13.0 | 0.00 | 0.00 | 0.00 | 88 | 1011.8 |
| 20260510031342 | 78 | 135 | 5.0 | 17.0 | 0.00 | 0.00 | 0.00 | 87 | 1011.8 |
| 20260510030824 | 78 | 120 | 11.0 | 17.0 | 0.00 | 0.00 | 0.00 | 87 | 1011.8 |
| 20260510030347 | 78 | 96 | 11.0 | 16.0 | 0.00 | 0.00 | 0.00 | 87 | 1011.7 |
| 20260510025829 | 78 | 134 | 5.0 | 11.0 | 0.00 | 0.00 | 0.00 | 86 | 1011.7 |
| 20260510025336 | 78 | 85 | 3.0 | 6.0 | 0.00 | 0.00 | 0.00 | 84 | 1011.7 |
| 20260510024823 | 78 | 73 | 2.0 | 3.0 | 0.00 | 0.00 | 0.00 | 83 | 1010.9 |
| 20260510024331 | 78 | 75 | 0.0 | 2.0 | 0.00 | 0.00 | 0.00 | 83 | 1010.9 |
| 20260510023835 | 78 | 42 | 0.0 | 4.0 | 0.00 | 0.00 | 0.00 | 82 | 1010.9 |
| 20260510023338 | 78 | 104 | 2.0 | 4.0 | 0.00 | 0.00 | 0.00 | 81 | 1010.4 |
| 20260510022822 | 78 | 135 | 2.0 | 4.0 | 0.00 | 0.00 | 0.00 | 80 | 1010.4 |
| 20260510022347 | 78 | 135 | 1.0 | 4.0 | 0.00 | 0.00 | 0.00 | 80 | 1010.4 |
| 20260510021850 | 78 | 123 | 0.0 | 7.0 | 0.00 | 0.00 | 0.00 | 79 | 1010.2 |
| 20260510021355 | 78 | 126 | 4.0 | 7.0 | 0.00 | 0.00 | 0.00 | 78 | 1010.2 |
| 20260510020838 | 78 | 143 | 4.0 | 6.0 | 0.00 | 0.00 | 0.00 | 78 | 1010.2 |
| 20260510020325 | 78 | 135 | 3.0 | 6.0 | 0.00 | 0.00 | 0.00 | 77 | 1009.6 |
| 20260510015827 | 78 | 124 | 4.0 | 6.0 | 0.00 | 0.00 | 0.00 | 77 | 1009.6 |
| 20260510015331 | 78 | 84 | 0.0 | 0.0 | 0.00 | 0.00 | 0.00 | 75 | 1009.6 |
| 20260510014839 | 78 | 84 | 0.0 | 0.0 | 0.00 | 0.00 | 0.00 | 75 | 1009.3 |
| 20260510014323 | 78 | 84 | 0.0 | 0.0 | 0.00 | 0.00 | 0.00 | 74 | 1009.3 |
| 20260510013825 | 79 | 84 | 0.0 | 0.0 | 0.00 | 0.00 | 0.00 | 73 | 1009.3 |
| 20260510013350 | 79 | 84 | 0.0 | 0.0 | 0.00 | 0.00 | 0.00 | 72 | 1009.5 |
| 20260510012837 | 80 | 84 | 0.0 | 0.0 | 0.00 | 0.00 | 0.00 | 71 | 1009.5 |
| 20260510012323 | 80 | 84 | 0.0 | 0.0 | 0.00 | 0.00 | 0.00 | 70 | 1009.5 |
| 20260510011829 | 80 | 84 | 0.0 | 2.0 | 0.00 | 0.00 | 0.00 | 70 | 1009.6 |
| 20260510011354 | 81 | 93 | 0.0 | 2.0 | 0.00 | 0.00 | 0.00 | 70 | 1009.6 |
| 20260510010838 | 81 | 9 | 0.0 | 7.0 | 0.00 | 0.00 | 0.00 | 70 | 1009.6 |
| 20260510010322 | 82 | 46 | 2.0 | 5.0 | 0.00 | 0.00 | 0.00 | 68 | 1009.0 |
| 20260510005846 | 82 | 9 | 2.0 | 9.0 | 0.00 | 0.00 | 0.00 | 62 | 1009.0 |
| 20260510005330 | 83 | 172 | 2.0 | 9.0 | 0.00 | 0.00 | 0.00 | 58 | 1009.0 |
| 20260510004834 | 83 | 178 | 2.0 | 6.0 | 0.00 | 0.00 | 0.00 | 59 | 1008.6 |
| 20260510004326 | 82 | 164 | 2.0 | 7.0 | 0.00 | 0.00 | 0.00 | 59 | 1008.6 |
| 20260510003829 | 82 | 181 | 3.0 | 7.0 | 0.00 | 0.00 | 0.00 | 61 | 1008.6 |
| 20260510003354 | 82 | 145 | 3.0 | 12.0 | 0.00 | 0.00 | 0.00 | 61 | 1008.7 |
| 20260510002835 | 83 | 183 | 4.0 | 13.0 | 0.00 | 0.00 | 0.00 | 60 | 1008.7 |
| 20260510002340 | 84 | 160 | 6.0 | 13.0 | 0.00 | 0.00 | 0.00 | 58 | 1008.7 |
| 20260510001826 | 86 | 175 | 4.0 | 7.0 | 0.00 | 0.00 | 0.00 | 65 | 1008.6 |
| 20260510001329 | 86 | 176 | 4.0 | 5.0 | 0.00 | 0.00 | 0.00 | 66 | 1008.6 |
| 20260510000832 | 86 | 152 | 3.0 | 7.0 | 0.00 | 0.00 | 0.00 | 67 | 1008.6 |
| 20260510000335 | 86 | 161 | 2.0 | 7.0 | 0.00 | 0.00 | 0.00 | 67 | 1008.4 |
| 20260509235837 | 87 | 198 | 3.0 | 7.0 | 0.00 | 0.00 | 0.00 | 67 | 1008.4 |
| 20260509235342 | 87 | 184 | 3.0 | 7.0 | 0.00 | 0.00 | 0.00 | 67 | 1008.4 |
| 20260509234826 | 87 | 205 | 0.0 | 7.0 | 0.00 | 0.00 | 0.00 | 67 | 1008.2 |
| 20260509234330 | 87 | 168 | 4.0 | 7.0 | 0.00 | 0.00 | 0.00 | 66 | 1008.2 |
| 20260509233832 | 88 | 236 | 0.0 | 0.0 | 0.00 | 0.00 | 0.00 | 71 | 1008.2 |
| 20260509233341 | 88 | 236 | 0.0 | 0.0 | 0.00 | 0.00 | 0.00 | 70 | 1008.1 |
| 20260509232826 | 88 | 236 | 0.0 | 0.0 | 0.00 | 0.00 | 0.00 | 67 | 1008.1 |
| 20260509232331 | 88 | 236 | 0.0 | 0.0 | 0.00 | 0.00 | 0.00 | 68 | 1008.1 |
| 20260509231835 | 89 | 236 | 0.0 | 0.0 | 0.00 | 0.00 | 0.00 | 66 | 1008.3 |
| 20260509231339 | 89 | 236 | 0.0 | 0.0 | 0.00 | 0.00 | 0.00 | 66 | 1008.3 |
| 20260509230844 | 89 | 236 | 0.0 | 0.0 | 0.00 | 0.00 | 0.00 | 65 | 1008.3 |
| 20260509230347 | 89 | 236 | 0.0 | 0.0 | 0.00 | 0.00 | 0.00 | 65 | 1008.1 |
| 20260509225828 | 89 | 236 | 0.0 | 0.0 | 0.00 | 0.00 | 0.00 | 63 | 1008.1 |
| 20260509225332 | 90 | 236 | 0.0 | 0.0 | 0.00 | 0.00 | 0.00 | 62 | 1008.1 |
| 20260509224900 | 90 | 236 | 0.0 | 0.0 | 0.00 | 0.00 | 0.00 | 60 | 1008.1 |
| 20260509224323 | 91 | 236 | 0.0 | 1.0 | 0.00 | 0.00 | 0.00 | 59 | 1008.1 |
| 20260509223832 | 92 | 236 | 0.0 | 2.0 | 0.00 | 0.00 | 0.00 | 59 | 1008.1 |
| 20260509223320 | 92 | 236 | 1.0 | 3.0 | 0.00 | 0.00 | 0.00 | 59 | 1008.1 |
| 20260509222827 | 92 | 236 | 1.0 | 3.0 | 0.00 | 0.00 | 0.00 | 59 | 1008.1 |
| 20260509222351 | 92 | 248 | 0.0 | 3.0 | 0.00 | 0.00 | 0.00 | 58 | 1008.1 |
| 20260509221854 | 92 | 254 | 1.0 | 2.0 | 0.00 | 0.00 | 0.00 | 60 | 1008.0 |
| 20260509221401 | 91 | 254 | 0.0 | 4.0 | 0.00 | 0.00 | 0.00 | 61 | 1008.0 |
| 20260509220826 | 91 | 254 | 2.0 | 4.0 | 0.00 | 0.00 | 0.00 | 61 | 1008.0 |
| 20260509220330 | 91 | 316 | 2.0 | 3.0 | 0.00 | 0.00 | 0.00 | 62 | 1008.0 |
| 20260509215835 | 90 | 316 | 1.0 | 5.0 | 0.00 | 0.00 | 0.00 | 63 | 1008.0 |
| 20260509215340 | 90 | 316 | 0.0 | 5.0 | 0.00 | 0.00 | 0.00 | 64 | 1008.0 |
| 20260509214823 | 90 | 329 | 2.0 | 4.0 | 0.00 | 0.00 | 0.00 | 64 | 1008.1 |
| 20260509214330 | 90 | 330 | 2.0 | 4.0 | 0.00 | 0.00 | 0.00 | 64 | 1008.1 |
| 20260509213832 | 90 | 134 | 3.0 | 4.0 | 0.00 | 0.00 | 0.00 | 64 | 1008.1 |
| 20260509213341 | 91 | 74 | 1.0 | 3.0 | 0.00 | 0.00 | 0.00 | 64 | 1008.1 |
| 20260509212825 | 90 | 217 | 1.0 | 3.0 | 0.00 | 0.00 | 0.00 | 64 | 1008.1 |
| 20260509212329 | 90 | 338 | 0.0 | 3.0 | 0.00 | 0.00 | 0.00 | 65 | 1008.1 |
| 20260509211832 | 90 | 65 | 0.0 | 3.0 | 0.00 | 0.00 | 0.00 | 64 | 1008.1 |
| 20260509211323 | 90 | 27 | 1.0 | 3.0 | 0.00 | 0.00 | 0.00 | 64 | 1008.1 |
| 20260509210828 | 89 | 72 | 1.0 | 3.0 | 0.00 | 0.00 | 0.00 | 66 | 1008.1 |
| 20260509210333 | 89 | 72 | 1.0 | 3.0 | 0.00 | 0.00 | 0.00 | 67 | 1008.6 |
| 20260509205835 | 89 | 80 | 0.0 | 4.0 | 0.00 | 0.00 | 0.00 | 68 | 1008.6 |
| 20260509205339 | 89 | 80 | 2.0 | 4.0 | 0.00 | 0.00 | 0.00 | 66 | 1008.6 |
| 20260509204823 | 89 | 11 | 0.0 | 2.0 | 0.00 | 0.00 | 0.00 | 67 | 1008.7 |
| 20260509204328 | 89 | 69 | 0.0 | 3.0 | 0.00 | 0.00 | 0.00 | 69 | 1008.7 |
| 20260509203831 | 88 | 10 | 0.0 | 3.0 | 0.00 | 0.00 | 0.00 | 70 | 1008.7 |
| 20260509203336 | 88 | 49 | 0.0 | 2.0 | 0.00 | 0.00 | 0.00 | 71 | 1008.8 |
| 20260509202841 | 88 | 49 | 0.0 | 3.0 | 0.00 | 0.00 | 0.00 | 70 | 1008.8 |
| 20260509202325 | 88 | 18 | 2.0 | 4.0 | 0.00 | 0.00 | 0.00 | 70 | 1008.8 |
| 20260509201836 | 88 | 143 | 2.0 | 4.0 | 0.00 | 0.00 | 0.00 | 70 | 1009.1 |
| 20260509201340 | 87 | 96 | 0.0 | 2.0 | 0.00 | 0.00 | 0.00 | 71 | 1009.1 |
| 20260509200825 | 87 | 113 | 0.0 | 3.0 | 0.00 | 0.00 | 0.00 | 70 | 1009.1 |
| 20260509200329 | 87 | 24 | 1.0 | 3.0 | 0.00 | 0.00 | 0.00 | 70 | 1009.1 |
| 20260509195832 | 88 | 319 | 1.0 | 3.0 | 0.00 | 0.00 | 0.00 | 70 | 1009.1 |
| 20260509195319 | 87 | 82 | 0.0 | 3.0 | 0.00 | 0.00 | 0.00 | 72 | 1009.1 |
| 20260509194825 | 87 | 324 | 1.0 | 3.0 | 0.00 | 0.00 | 0.00 | 69 | 1009.3 |
| 20260509194329 | 87 | 302 | 0.0 | 4.0 | 0.00 | 0.00 | 0.00 | 72 | 1009.3 |
| 20260509193833 | 87 | 358 | 2.0 | 4.0 | 0.00 | 0.00 | 0.00 | 71 | 1009.3 |
| 20260509193337 | 88 | 75 | 1.0 | 3.0 | 0.00 | 0.00 | 0.00 | 70 | 1009.4 |
| 20260509192825 | 88 | 317 | 1.0 | 3.0 | 0.00 | 0.00 | 0.00 | 68 | 1009.4 |
| 20260509192330 | 89 | 73 | 1.0 | 3.0 | 0.00 | 0.00 | 0.00 | 69 | 1009.4 |
| 20260509191833 | 88 | 226 | 1.0 | 3.0 | 0.00 | 0.00 | 0.00 | 69 | 1009.6 |
| 20260509191337 | 88 | 127 | 1.0 | 3.0 | 0.00 | 0.00 | 0.00 | 69 | 1009.6 |
| 20260509190841 | 87 | 304 | 1.0 | 6.0 | 0.00 | 0.00 | 0.00 | 69 | 1009.6 |
| 20260509190325 | 87 | 233 | 3.0 | 6.0 | 0.00 | 0.00 | 0.00 | 69 | 1009.6 |
| 20260509185848 | 87 | 42 | 0.0 | 4.0 | 0.00 | 0.00 | 0.00 | 71 | 1009.6 |
| 20260509185332 | 86 | 215 | 1.0 | 4.0 | 0.00 | 0.00 | 0.00 | 71 | 1009.6 |
| 20260509184838 | 86 | 298 | 0.0 | 6.0 | 0.00 | 0.00 | 0.00 | 70 | 1010.0 |
| 20260509184342 | 86 | 203 | 3.0 | 6.0 | 0.00 | 0.00 | 0.00 | 69 | 1010.0 |
| 20260509183826 | 86 | 310 | 2.0 | 6.0 | 0.00 | 0.00 | 0.00 | 70 | 1010.0 |
| 20260509183331 | 86 | 241 | 3.0 | 6.0 | 0.00 | 0.00 | 0.00 | 70 | 1010.1 |
| 20260509182839 | 87 | 248 | 2.0 | 5.0 | 0.00 | 0.00 | 0.00 | 71 | 1010.1 |
| 20260509182403 | 87 | 262 | 2.0 | 5.0 | 0.00 | 0.00 | 0.00 | 71 | 1010.1 |
| 20260509181846 | 86 | 164 | 3.0 | 6.0 | 0.00 | 0.00 | 0.00 | 71 | 1010.4 |
| 20260509181352 | 86 | 188 | 1.0 | 7.0 | 0.00 | 0.00 | 0.00 | 72 | 1010.4 |
| 20260509180833 | 85 | 217 | 4.0 | 7.0 | 0.00 | 0.00 | 0.00 | 74 | 1010.4 |
| 20260509180340 | 85 | 257 | 3.0 | 6.0 | 0.00 | 0.00 | 0.00 | 74 | 1010.6 |
| 20260509175822 | 85 | 172 | 1.0 | 6.0 | 0.00 | 0.00 | 0.00 | 73 | 1010.6 |
| 20260509175347 | 84 | 155 | 4.0 | 6.0 | 0.00 | 0.00 | 0.00 | 73 | 1010.6 |
| 20260509174832 | 84 | 161 | 3.0 | 11.0 | 0.00 | 0.00 | 0.00 | 75 | 1010.6 |
| 20260509174357 | 84 | 158 | 5.0 | 11.0 | 0.00 | 0.00 | 0.00 | 76 | 1010.6 |
| 20260509173841 | 84 | 196 | 6.0 | 10.0 | 0.00 | 0.00 | 0.00 | 76 | 1010.6 |
| 20260509173324 | 84 | 146 | 6.0 | 13.0 | 0.00 | 0.00 | 0.00 | 77 | 1010.7 |
| 20260509172851 | 85 | 186 | 5.0 | 13.0 | 0.00 | 0.00 | 0.00 | 76 | 1010.7 |
| 20260509172337 | 85 | 129 | 5.0 | 11.0 | 0.00 | 0.00 | 0.00 | 78 | 1010.7 |
| 20260509171823 | 83 | 150 | 6.0 | 11.0 | 0.00 | 0.00 | 0.00 | 79 | 1010.5 |
| 20260509171331 | 83 | 179 | 6.0 | 11.0 | 0.00 | 0.00 | 0.00 | 81 | 1010.5 |
| 20260509170835 | 82 | 198 | 6.0 | 11.0 | 0.00 | 0.00 | 0.00 | 81 | 1010.5 |
| 20260509170320 | 82 | 210 | 4.0 | 10.0 | 0.00 | 0.00 | 0.00 | 82 | 1010.3 |
| 20260509165825 | 81 | 146 | 5.0 | 9.0 | 0.00 | 0.00 | 0.00 | 84 | 1010.3 |
| 20260509165349 | 81 | 122 | 5.0 | 7.0 | 0.00 | 0.00 | 0.00 | 84 | 1010.3 |
| 20260509164831 | 80 | 168 | 4.0 | 7.0 | 0.00 | 0.00 | 0.00 | 85 | 1010.7 |
| 20260509164339 | 80 | 190 | 2.0 | 5.0 | 0.00 | 0.00 | 0.00 | 87 | 1010.7 |
| 20260509163846 | 79 | 191 | 2.0 | 5.0 | 0.00 | 0.00 | 0.00 | 87 | 1010.7 |
| 20260509163327 | 79 | 192 | 2.0 | 4.0 | 0.00 | 0.00 | 0.00 | 88 | 1011.0 |
| 20260509162832 | 79 | 159 | 1.0 | 4.0 | 0.00 | 0.00 | 0.00 | 88 | 1011.0 |
| 20260509162339 | 79 | 188 | 2.0 | 4.0 | 0.00 | 0.00 | 0.00 | 88 | 1011.0 |
| 20260509161842 | 79 | 303 | 0.0 | 2.0 | 0.00 | 0.00 | 0.00 | 89 | 1011.1 |
| 20260509161345 | 78 | 303 | 0.0 | 2.0 | 0.00 | 0.00 | 0.00 | 89 | 1011.1 |
| 20260509160827 | 78 | 303 | 0.0 | 2.0 | 0.00 | 0.00 | 0.00 | 90 | 1011.1 |
| 20260509160333 | 78 | 303 | 0.0 | 2.0 | 0.00 | 0.00 | 0.00 | 90 | 1011.1 |
| 20260509155840 | 78 | 303 | 0.0 | 2.0 | 0.00 | 0.00 | 0.00 | 90 | 1011.1 |
| 20260509155324 | 78 | 303 | 1.0 | 3.0 | 0.00 | 0.00 | 0.00 | 90 | 1011.1 |